Location: Jackson Park
(37.2862°N, 79.9123°W)
Time: 22:29:46
(UTC+00:00)

Transit 4A - Pass Details

Date: 19 May 2026
Orbit: 861 x 980 km, 66.8° (Epoch: 5 June)

Event Time Altitude Azimuth Distance (km) Brightness Sun altitude
Rises 19:56:43 0° 342° (NNW) 3,686 11.1 51.1°
Reaches altitude 10° 19:59:56 10° 357° (N) 2,738 10.4 50.5°
Maximum altitude 20:04:52 23° 48° (NE) 1,966 9.5 49.5°
Drops below altitude 10° 20:09:43 10° 98° (E) 2,710 10.1 48.6°
Sets 20:12:52 0° 113° (ESE) 3,639 10.7 48.0°
